Погода в Цель-ам-Зе

Австрия     47°19′24″N   12°47′48″E
темп.,
°C
ветер,
м/с
пор.,
м/с
влажн.,
%
обл.,
%
осадки,
мм/ч
давл.,
гПа
погр.,
м
17 августа, ср
ср1723:00+12ю34780 0.0 101546
02:00+12ююз34820 0.0 101559
05:00+11ю34830 0.0 101462
08:00+15ююз34730 0.0 1014133
11:00+21ююв12479 0.0 10131497
14:00+24ююв123995 0.0 10112271
17:00+18юз117175 0.3 1013119
20:00+14ю3288100 1.5 101428
18 августа, чт
чт1823:00+13ю4591100 0.2 101499
02:00+12ююз4687100 0.2 101478
05:00+12ююз45794 0.0 101470
08:00+15ююз3475100 0.0 101494
11:00+21юв0251100 0.0 1012914
14:00+23вюв1344100 0.1 10101870
17:00+17ююз3381100 1.6 1012208
20:00+14ююз229287 3.0 101235
19 августа, пт
пт1923:00+12ю3394100 0.0 101360
02:00+12ю3493100 1.5 101475
05:00+10ююз3489100 0.0 101348
08:00+13зсз018890 0.2 1012118
11:00+13юз1192100 1.8 1013112
14:00+16с218156 5.6 1012631
17:00+15ссз228595 4.4 1012434
20:00+11зсз2295100 7.2 101428
20 августа, сб
сб2023:00+11з2397100 1.3 1017103
02:00+10зюз2296100 9.3 101893
05:00+9зсз22100100 10.0 1018130
08:00+10з1296100 11.2 101976
11:00+13з1277100 0.3 1018452
14:00+16с225995 0.6 10171135
17:00+16с336124 0.2 10161245
20:00+10сз229161 0.6 101821
21 августа, вс
вс2123:00+10з1294100 0.1 102048
02:00+10з1194100 0.3 101936
05:00+9зсз1299100 0.4 101885
08:00+10з1197100 0.9 101862
11:00+13зсз118016 0.3 1017607
14:00+14с328358 1.8 1015758
17:00+13ссз228638 2.3 1015572
20:00+9сз229530 3.8 101767